Regional Weather Roundup
Issued by NWS

Home | Current Version | Previous Version | Graphics & Text | Print | Product List | Glossary On
Versions: 1 2 3 4 5 6 7 8 9 10 11 12 13 14 15 16 17 18 19 20 21 22 23 24 25 26 27 28 29 30 31 32 33 34 35 36 37 38 39 40 41 42 43 44 45 46 47 48 49 50
000
ASUS43 KDTX 311301
RWRMI
MICHIGAN HOURLY REGIONAL WEATHER ROUNDUP
NATIONAL WEATHER SERVICE DETROIT/PONTIAC MI
900 AM EDT MON AUG 31 2015

NOTE: "FAIR" INDICATES FEW OR NO CLOUDS BELOW 12,000 FEET WITH NO
SIGNIFICANT WEATHER AND/OR OBSTRUCTION TO VISIBILITY.

MIZ047>049-052>055-059>063-066>070-074>076-081>083-311400-
SOUTHEAST LOWER MICHIGAN

CITY           SKY/WX    TMP DP  RH WIND       PRES   REMARKS
ADRIAN         CLOUDY    67  65  93 CALM      30.10R FOG
ALMA           CLOUDY    64  64  99 SW3       30.09R FOG
ANN ARBOR      PTSUNNY   67  66  97 CALM      30.09R FOG
BAD AXE        CLOUDY    64  64 100 SW5       30.07R FOG
CARO           FOG       63  63 100 W5        30.08R VSB 1/4
DETROIT CITY   MOSUNNY   71  65  81 W5        30.08R
DETROIT        MOSUNNY   72  67  84 W6        30.09R HAZE
FLINT          CLOUDY    66  63  90 W6        30.09R FOG
GROSSE ILE     MOSUNNY   72  68  88 CALM      30.07R FOG
HILLSDALE      PTSUNNY   68  68 100 CALM      30.10S FOG
HOWELL         CLOUDY    63  63 100 W3        30.10R FOG

CITY           SKY/WX    TMP DP  RH WIND       PRES   REMARKS
JACKSON        CLOUDY    65  65 100 CALM      30.10R FOG
LAMBERTVILLE   MOSUNNY   69  67  92 CALM      30.09S FOG
LANSING        FOG       64  62  93 W6        30.10R VSB 1
LAPEER         CLOUDY    64  64 100 W3        30.08S FOG
MASON          FOG       62  60  93 CALM      30.10S VSB 1
MONROE         SUNNY     68  67  96 CALM      30.08R FOG
MT. CLEMENS    SUNNY     69  67  93 NW7       30.06R
PONTIAC        CLOUDY    63  62  97 W14       30.08S FOG
PORT HOPE        N/A     66  65  96 SW5       30.04R
PORT HURON     PTSUNNY   64  64 100 W3        30.08R FOG
TRI CITIES     CLOUDY    64  62  93 SW7       30.08R FOG
MIDLAND        CLOUDY    64  63  97 SW3       30.07R FOG
TROY           MOSUNNY   69  66  89 W8        30.10R FOG
SAGINAW HB     FOG       63  63 100 SW6       30.07S VSB 1/2
$$
MIZ043>046-050>051-056>058-064>065-071>073-077>080-311400-
SOUTHWEST LOWER MICHIGAN

CITY           SKY/WX    TMP DP  RH WIND       PRES   REMARKS
BATTLE CREEK   CLOUDY    67  64  90 CALM      30.10S FOG
BENTON HARBOR  CLOUDY    63  61  93 CALM      30.08R FOG
BIG RAPIDS     FOG       62  62  98 CALM      30.08R VSB 1/2
COLDWATER      SUNNY     66  66 100 CALM      30.10R FOG
FREMONT        FOG       64  64 100 CALM      30.08R VSB 1/4
HOLLAND        SUNNY     66  61  84 CALM      30.09R
GRAND RAPIDS   FOG       63  62  97 CALM      30.09S VSB 1/8
IONIA          CLOUDY    64  64  99 CALM      30.09R FOG
KALAMAZOO      CLOUDY    64  62  93 CALM      30.10R FOG
LUDINGTON      PTSUNNY   68  66  92 SW9       30.06S FOG
MARSHALL       CLOUDY    64  63  97 CALM      30.09S FOG
MOUNT PLEASANT CLOUDY    65  64  94 W3        30.07R FOG
MUSKEGON       FOG       63  60  90 SE5       30.08S VSB 1/2
SOUTH HAVEN    CLOUDY    63  62  96 CALM      30.08S FOG
$$
MIZ016>042-311400-
NORTHERN LOWER MICHIGAN

CITY           SKY/WX    TMP DP  RH WIND       PRES   REMARKS
ALPENA         CLOUDY    64  62  93 W6        30.03R FOG
BEAVER ISLAND  CLOUDY    66  64  94 SW7       30.00S
BELLAIRE       CLOUDY    66  64  92 S3        30.03S FOG
CADILLAC       FOG       64  63  97 SW6       30.07R VSB 1
CHARLEVOIX     MOSUNNY   67  66  96 S6        30.04S FOG
FRANKFORT      MOSUNNY   67  65  93 SW3       30.03S
GAYLORD        FOG       64  64 100 SW6       30.05S VSB 3/4
GRAYLING       FOG       62  62  99 SW5       30.06S VSB 1/4
HARBOR SPRINGS CLOUDY    65  64  93 CALM      30.01F FOG
HOUGHTON LAKE  CLOUDY    63  62  97 W6        30.07R FOG
MANISTEE       CLOUDY    63  61  94 CALM      30.06R VSB 1/4
OSCODA         SUNNY     66  64  93 CALM      30.03R
PELLSTON       CLOUDY    67  64  90 VRB7      30.01S
ROGERS CITY    CLOUDY    65  62  91 W6        30.02S FOG
TRAVERSE CITY  CLOUDY    67  63  87 SW7       30.03R
$$
MIZ007>008-015-311400-
EASTERN UPPER MICHIGAN

CITY           SKY/WX    TMP DP  RH WIND       PRES   REMARKS
KINROSS        CLOUDY    66  64  94 W3        30.00R
MACKINAC ISLAN CLOUDY    66  65  96 W10       30.00S FOG
NEWBERRY       FOG       63  63 100 S5        29.99S VSB 1/4
S. S. MARIE    CLOUDY    66  64  93 S5        29.99R FOG
$$
MIZ004>006-011>014-085-311400-
CENTRAL UPPER MICHIGAN

CITY           SKY/WX    TMP DP  RH WIND       PRES   REMARKS
MANISTIQUE     FOG       64  63  97 CALM      29.98S VSB 1/4
ESCANABA       CLOUDY    63  63 100 SW3       29.98S VSB<1/4
MENOMINEE      CLOUDY    64  61  88 W5        29.99S
SAWYER-GWINN   SUNNY     61  59  94 SW3       29.98S FOG
$$
MIZ001>003-009>011-084-311400-
WESTERN UPPER MICHIGAN

CITY           SKY/WX    TMP DP  RH WIND       PRES   REMARKS
IRON MOUNTAIN  MOSUNNY   61  60  97 SE5       29.99R FOG
HOUGHTON       FOG       63  62  97 S5        29.93S VSB<1/4
IRONWOOD       SUNNY     64  63  94 S7        29.92S
$$

ABBREVIATIONS USED IN REMARKS
   TC - TEMPERATURE IN CELSIUS
  WCI - WIND CHILL INDEX
   HX - HEAT INDEX
  VSB - VISIBILITY




USA.gov is the U.S. government's official web portal to all federal, state and local government web resources and services.